星链-4265 (STARLINK-4265 )

导读 | 豆包AI

STARLINK-4265是美国SpaceX星链星座的成员,于2022年7月7日发射升空,属于星链组网的第四批次卫星。星链星座旨在为全球提供高速低延迟宽带互联网服务,尤其填补偏远和基础设施匮乏地区的网络覆盖空白。这颗卫星运行在近地轨道,单颗重约297公斤,跟随星座组网持续为全球用户提供移动、固定互联网接入服务,支撑星链实现覆盖全球的通信能力。

Basic Information
目录编号:
53011
目录名称:
STARLINK-4265
国际标识:
2022-076AB
轨道中心:
EARTH
卫星名称:
星链-4265
卫星全名:
星链-4265 (STARLINK-4265 )
卫星状态:
在轨 (已飞行1347 天)
发射日期:
2022-07-07 UTC
国别 :
美国 (US)
星等 :
--
Orbit Information
数据来源 国际轨道数据 AOE轨道数据
星历时间 2026-03-14T14:31:33+0800
20小时前
查看轨道信息
2026-03-10T04:00:00+0800
5天前
查看轨道信息
半长轴 6917.889km 6917.871km
偏心率 0.0001301 0.0001399
轨道倾角 53.218° 53.216°
近地点辐角 95.034° 87.891°
升交点赤经 63.549° 83.477°
平近点角 265.080° 269.539°
近地点 538.851km 538.766km
远地点 540.653km 540.702km
周期 95.438分钟 95.437分钟
每日圈数 15.088375 15.088433
Detailed Information
固有亮度:
5
最大亮度:
2.5
卫星平台:
Starlink v1.5
覆盖范围:
全球
运营商:
太空探索技术公司
运营商所在国:
美国
制造商(研发单位):
太空探索技术公司
制造商所在国:
美国
使用方式:
暂无
Satellite Introduction
星链(Starlink)计划是由太空探索技术公司(SpaceX)提出的一个巨型低轨卫星互联网星座项目,计划在2019年至2024年间在太空搭建由约1.2万颗卫星组成的“星链”网络,其中1584颗将部署在地球上空550千米处的近地轨道,并从2020年开始工作。该卫星仍在工作。
2D Orbit Map
3D Orbit Map
Orbit Altitude Analysis Chart
Orbit Inclination Analysis Chart
Orbit Comprehensive Analysis Chart
View Comprehensive Chart